{"data":{"norad_id":49761,"intl_designator":"2021-115AP","name":"STARLINK-3203","alt_names":[],"object_type":"PAYLOAD","status":"ACTIVE","operator":null,"country":"US","launch_date":"2021-12-02","launch_site_code":"AFETR","launch_vehicle":null,"mission":null,"orbit_class":"UNKNOWN","rcs_meters":null,"size_class":null,"mass_kg":null,"dimensions":null,"purposes":["comms"],"wikipedia_slug":null,"has_3d_model":false,"image_url":null,"decayed_at":null,"tle_current":{"epoch":"2026-09-19T19:17:53.022624Z","epoch_age_seconds":105450,"freshness":"FRESH","line1":"1 49761U 21115AP  26262.80408591  .00000507  00000+0  26149-4 0  9997","line2":"2 49761  53.1616 332.6402 0001272  83.8051 276.3097 15.34386376265180","mean_motion":15.34386376,"eccentricity":0.0001272,"inclination_deg":53.1616,"raan_deg":332.6402,"arg_perigee_deg":83.8051,"mean_anomaly_deg":276.3097,"bstar":2.6149e-5,"rev_number":26518,"period_min":93.848591366794,"perigee_km":461.8735738765,"apogee_km":463.61389393521,"semimajor_km":6840.8807339059,"source":"CELESTRAK","updated_at":"2026-09-20T09:00:39.410923Z"}}}